Location: Auckland
(36.8670°S, 174.7670°E)
Time: 13:37:22
(UTC+13:00)

Cosmos 1386 Rocket - Pass Details

Date: 24 January 2019
Orbit: 930 x 1005 km, 83.0° (Epoch: 20 February)

Event Time Altitude Azimuth Distance (km) Brightness Sun altitude
Exits shadow 23:09:17 42° 350° (N) 1,336 4.9 -24.5°
Maximum altitude 23:11:31 86° 265° (W) 969 4.4 -24.7°
Drops below altitude 10° 23:17:41 10° 174° (S) 2,688 7.4 -25.5°
Sets 23:20:11 0° 173° (S) 3,632 8.2 -25.8°
